Weather History for Moses Lake, WA

Change the Weather History Date:

Thursday, April 11, 2013

  Actual Average Record
Temperature  
Mean Temperature 51 °F 49 °F  
Max Temperature 64 °F 62 °F 79 °F (1985)
Min Temperature 38 °F 36 °F 22 °F (2007)
Degree Days  
Heating Degree Days 14 16  
Month to date heating degree days 126 186  
Since 1 July heating degree days 4857 5358  
Cooling Degree Days 0 0  
Month to date cooling degree days 0 0  
Year to date cooling degree days 0 0  
Growing Degree Days 3 (Base 50)    
Moisture  
Dew Point 27 °F    
Average Humidity 44    
Maximum Humidity 70    
Minimum Humidity 17    
Precipitation  
Precipitation 0.00 in 0.02 in 0.22 in (1982)
Month to date precipitation 0.31 0.27  
Year to date precipitation 1.33 2.99  
Sea Level Pressure  
Sea Level Pressure 30.12 in    
Wind  
Wind Speed 9 mph (WSW)    
Max Wind Speed 22 mph    
Max Gust Speed 26 mph    
Visibility 10 miles    
Events      
T = Trace of Precipitation, MM = Missing Value Source: NWS Daily Summary

Daily Weather History Graph

Daily Weather History Graph

Search for Another Location

Airport:

Trip Planner

Search our weather history database for the weather conditions in past years. The results will help you decide how hot, cold, wet, or windy it might be!

Date:

Astronomy

Apr. 11, 2013 Rise Set
Actual Time 6:16 AM PDT 7:41 PM PDT
Civil Twilight 5:44 AM PDT 8:13 PM PDT
Nautical Twilight 5:05 AM PDT 8:51 PM PDT
Astronomical Twilight 4:24 AM PDT 9:33 PM PDT
Moon 6:44 AM PDT (4/11) 9:28 PM PDT (4/11)
Length of Visible Light 14h 28m
Length of Day
13h 25m
New Moon, 2% of the Moon is Illuminated
Apr 11
New Moon
Apr 18
First Quarter
Apr 25
Full
May 2
Last Quarter
May 9
New

Hourly Weather History & Observations

Time (PDT) Temp. Windchill Dew Point Humidity Pressure Visibility Wind Dir Wind Speed Gust Speed Precip Events Conditions
12:52 AM 45.0 °F 40.6 °F 33.1 °F 63% 30.07 in 10.0 mi West 8.1 mph - N/A   Clear
1:52 AM 43.0 °F 39.5 °F 32.0 °F 65% 30.09 in 10.0 mi WNW 5.8 mph - N/A   Clear
2:52 AM 44.1 °F - 30.9 °F 60% 30.09 in 10.0 mi Calm Calm - N/A   Clear
3:52 AM 42.1 °F 39.2 °F 32.0 °F 67% 30.09 in 10.0 mi SE 4.6 mph - N/A   Clear
4:52 AM 45.0 °F 41.2 °F 30.0 °F 56% 30.10 in 10.0 mi WNW 6.9 mph - N/A   Clear
5:52 AM 46.9 °F - 30.0 °F 52% 30.09 in 10.0 mi SW 8.1 mph - N/A   Clear
6:52 AM 48.0 °F - 28.9 °F 48% 30.11 in 10.0 mi West 10.4 mph - N/A   Clear
7:52 AM 46.4 °F 42.9 °F 32.0 °F 57% 30.11 in 10.0 mi WSW 6.9 mph - N/A   Clear
8:52 AM 43.0 °F 38.8 °F 33.1 °F 68% 30.14 in 10.0 mi SSE 6.9 mph - N/A   Clear
9:52 AM 44.1 °F 40.1 °F 34.0 °F 68% 30.15 in 10.0 mi South 6.9 mph - N/A   Clear
10:52 AM 46.9 °F - 35.1 °F 63% 30.30 in 10.0 mi South 5.8 mph - N/A   Clear
11:52 AM 52.0 °F - 32.0 °F 47% 30.16 in 10.0 mi SSW 9.2 mph - N/A   Clear
12:52 PM 57.9 °F - 28.9 °F 33% 30.14 in 10.0 mi West 13.8 mph - N/A   Clear
1:52 PM 61.0 °F - 27.0 °F 27% 30.12 in 10.0 mi WSW 16.1 mph - N/A   Clear
2:52 PM 62.1 °F - 28.0 °F 28% 30.09 in 10.0 mi SSW 12.7 mph - N/A   Clear
3:52 PM 64.0 °F - 26.1 °F 24% 30.07 in 10.0 mi West 12.7 mph 23.0 mph N/A   Clear
4:52 PM 63.0 °F - 19.0 °F 18% 30.06 in 10.0 mi West 17.3 mph 23.0 mph N/A   Clear
5:52 PM 62.1 °F - 18.0 °F 18% 30.06 in 10.0 mi WNW 13.8 mph - N/A   Clear
6:52 PM 57.9 °F - 18.0 °F 21% 30.07 in 10.0 mi WNW 13.8 mph - N/A   Clear
7:52 PM 52.0 °F - 19.9 °F 28% 30.08 in 10.0 mi West 10.4 mph - N/A   Clear
8:52 PM 46.0 °F 41.4 °F 21.0 °F 37% 30.10 in 10.0 mi WNW 9.2 mph - N/A   Clear
9:52 PM 46.0 °F 43.9 °F 24.1 °F 42% 30.12 in 10.0 mi WSW 4.6 mph - N/A   Clear
10:52 PM 45.0 °F 42.6 °F 23.0 °F 42% 30.25 in 10.0 mi WSW 4.6 mph - N/A   Clear
11:52 PM 44.1 °F 39.0 °F 23.0 °F 43% 30.11 in 10.0 mi West 9.2 mph - N/A   Clear